Year,Month,Day,Hour,Minute,Value (Times are PST for temperature in C)
2017,05,13,00,00,7.30
2017,05,13,00,01,7.30
2017,05,13,00,02,7.30
2017,05,13,00,03,7.30
2017,05,13,00,04,7.30
2017,05,13,00,05,7.40
2017,05,13,00,06,7.40
2017,05,13,00,07,7.40
2017,05,13,00,08,7.40
2017,05,13,00,09,7.40
2017,05,13,00,10,7.50
2017,05,13,00,11,7.50
2017,05,13,00,12,7.50
2017,05,13,00,13,7.60
2017,05,13,00,14,7.60
2017,05,13,00,15,7.60
2017,05,13,00,16,7.60
2017,05,13,00,17,7.60
2017,05,13,00,18,7.60
2017,05,13,00,19,7.60
2017,05,13,00,20,7.60
2017,05,13,00,21,7.60
2017,05,13,00,22,7.60
2017,05,13,00,23,7.70
2017,05,13,00,24,7.70
2017,05,13,00,25,7.70
2017,05,13,00,26,7.70
2017,05,13,00,27,7.70
2017,05,13,00,28,7.70
2017,05,13,00,29,7.80
2017,05,13,00,30,7.80
2017,05,13,00,31,7.80
2017,05,13,00,32,7.80
2017,05,13,00,33,7.80
2017,05,13,00,34,7.80
2017,05,13,00,35,7.80
2017,05,13,00,36,7.80
2017,05,13,00,37,7.80
2017,05,13,00,38,7.80
2017,05,13,00,39,7.80
2017,05,13,00,40,7.80
2017,05,13,00,41,7.80
2017,05,13,00,42,7.80
2017,05,13,00,43,7.80
2017,05,13,00,44,7.80
2017,05,13,00,45,7.80
2017,05,13,00,46,7.80
2017,05,13,00,47,7.80
2017,05,13,00,48,7.80
2017,05,13,00,49,7.80
2017,05,13,00,50,7.80
2017,05,13,00,51,7.80
2017,05,13,00,52,7.80
2017,05,13,00,53,7.80
2017,05,13,00,54,7.80
2017,05,13,00,55,7.80
2017,05,13,00,56,7.80
2017,05,13,00,57,7.80
2017,05,13,00,58,7.80
2017,05,13,00,59,7.80
2017,05,13,01,00,7.80
2017,05,13,01,01,7.80
2017,05,13,01,02,7.80
2017,05,13,01,03,7.80
2017,05,13,01,04,7.80
2017,05,13,01,05,7.80
2017,05,13,01,06,7.80
2017,05,13,01,07,7.80
2017,05,13,01,08,7.80
2017,05,13,01,09,7.90
2017,05,13,01,10,7.90
2017,05,13,01,11,7.90
2017,05,13,01,12,7.90
2017,05,13,01,13,7.90
2017,05,13,01,14,7.90
2017,05,13,01,15,7.90
2017,05,13,01,16,7.90
2017,05,13,01,17,7.90
2017,05,13,01,18,7.90
2017,05,13,01,19,7.90
2017,05,13,01,20,7.90
2017,05,13,01,21,7.90
2017,05,13,01,22,7.90
2017,05,13,01,23,8.00
2017,05,13,01,24,8.00
2017,05,13,01,25,8.00
2017,05,13,01,26,7.90
2017,05,13,01,27,7.90
2017,05,13,01,28,7.90
2017,05,13,01,29,7.90
2017,05,13,01,30,7.90
2017,05,13,01,31,7.90
2017,05,13,01,32,7.90
2017,05,13,01,33,7.90
2017,05,13,01,34,7.90
2017,05,13,01,35,7.90
2017,05,13,01,36,7.90
2017,05,13,01,37,7.90
2017,05,13,01,38,7.90
2017,05,13,01,39,7.90
2017,05,13,01,40,7.80
2017,05,13,01,41,7.80
2017,05,13,01,42,7.80
2017,05,13,01,43,7.80
2017,05,13,01,44,7.80
2017,05,13,01,45,7.80
2017,05,13,01,46,7.80
2017,05,13,01,47,7.70
2017,05,13,01,48,7.70
2017,05,13,01,49,7.70
2017,05,13,01,50,7.70
2017,05,13,01,51,7.60
2017,05,13,01,52,7.60
2017,05,13,01,53,7.60
2017,05,13,01,54,7.60
2017,05,13,01,55,7.60
2017,05,13,01,56,7.60
2017,05,13,01,57,7.50
2017,05,13,01,58,7.50
2017,05,13,01,59,7.50
2017,05,13,02,00,7.50
2017,05,13,02,01,7.50
2017,05,13,02,02,7.40
2017,05,13,02,03,7.40
2017,05,13,02,04,7.30
2017,05,13,02,05,7.30
2017,05,13,02,06,7.30
2017,05,13,02,07,7.30
2017,05,13,02,08,7.20
2017,05,13,02,09,7.20
2017,05,13,02,10,7.20
2017,05,13,02,11,7.10
2017,05,13,02,12,7.10
2017,05,13,02,13,7.10
2017,05,13,02,14,7.00
2017,05,13,02,15,7.00
2017,05,13,02,16,7.00
2017,05,13,02,17,7.00
2017,05,13,02,18,7.00
2017,05,13,02,19,6.90
2017,05,13,02,20,6.90
2017,05,13,02,21,6.90
2017,05,13,02,22,6.90
2017,05,13,02,23,6.90
2017,05,13,02,24,6.90
2017,05,13,02,25,6.90
2017,05,13,02,26,6.90
2017,05,13,02,27,6.90
2017,05,13,02,28,6.90
2017,05,13,02,29,6.90
2017,05,13,02,30,7.00
2017,05,13,02,31,7.00
2017,05,13,02,32,7.00
2017,05,13,02,33,7.00
2017,05,13,02,34,7.10
2017,05,13,02,35,7.10
2017,05,13,02,36,7.10
2017,05,13,02,37,7.10
2017,05,13,02,38,7.10
2017,05,13,02,39,7.10
2017,05,13,02,40,7.10
2017,05,13,02,41,7.10
2017,05,13,02,42,7.10
2017,05,13,02,43,7.10
2017,05,13,02,44,7.10
2017,05,13,02,45,7.00
2017,05,13,02,46,7.00
2017,05,13,02,47,7.00
2017,05,13,02,48,7.00
2017,05,13,02,49,7.00
2017,05,13,02,50,7.00
2017,05,13,02,51,6.90
2017,05,13,02,52,6.90
2017,05,13,02,53,6.90
2017,05,13,02,54,6.90
2017,05,13,02,55,6.90
2017,05,13,02,56,6.90
2017,05,13,02,57,6.90
2017,05,13,02,58,6.80
2017,05,13,02,59,6.80
2017,05,13,03,00,6.80
2017,05,13,03,01,6.80
2017,05,13,03,02,6.80
2017,05,13,03,03,6.80
2017,05,13,03,04,6.80
2017,05,13,03,05,6.80
2017,05,13,03,06,6.70
2017,05,13,03,07,6.70
2017,05,13,03,08,6.70
2017,05,13,03,09,6.70
2017,05,13,03,10,6.70
2017,05,13,03,11,6.70
2017,05,13,03,12,6.60
2017,05,13,03,13,6.60
2017,05,13,03,14,6.60
2017,05,13,03,15,6.60
2017,05,13,03,16,6.60
2017,05,13,03,17,6.60
2017,05,13,03,18,6.60
2017,05,13,03,19,6.70
2017,05,13,03,20,6.70
2017,05,13,03,21,6.70
2017,05,13,03,22,6.70
2017,05,13,03,23,6.70
2017,05,13,03,24,6.70
2017,05,13,03,25,6.70
2017,05,13,03,26,6.70
2017,05,13,03,27,6.70
2017,05,13,03,28,6.70
2017,05,13,03,29,6.70
2017,05,13,03,30,6.70
2017,05,13,03,31,6.70
2017,05,13,03,32,6.70
2017,05,13,03,33,6.70
2017,05,13,03,34,6.70
2017,05,13,03,35,6.70
2017,05,13,03,36,6.70
2017,05,13,03,37,6.70
2017,05,13,03,38,6.70
2017,05,13,03,39,6.60
2017,05,13,03,40,6.60
2017,05,13,03,41,6.60
2017,05,13,03,42,6.60
2017,05,13,03,43,6.60
2017,05,13,03,44,6.60
2017,05,13,03,45,6.60
2017,05,13,03,46,6.60
2017,05,13,03,47,6.60
2017,05,13,03,48,6.60
2017,05,13,03,49,6.60
2017,05,13,03,50,6.60
2017,05,13,03,51,6.60
2017,05,13,03,52,6.60
2017,05,13,03,53,6.60
2017,05,13,03,54,6.60
2017,05,13,03,55,6.60
2017,05,13,03,56,6.60
2017,05,13,03,57,6.60
2017,05,13,03,58,6.60
2017,05,13,03,59,6.60
2017,05,13,04,00,6.60
2017,05,13,04,01,6.60
2017,05,13,04,02,6.60
2017,05,13,04,03,6.60
2017,05,13,04,04,6.60
2017,05,13,04,05,6.60
2017,05,13,04,06,6.60
2017,05,13,04,07,6.60
2017,05,13,04,08,6.60
2017,05,13,04,09,6.40
2017,05,13,04,10,6.40
2017,05,13,04,11,6.40
2017,05,13,04,12,6.40
2017,05,13,04,13,6.40
2017,05,13,04,14,6.40
2017,05,13,04,15,6.40
2017,05,13,04,16,6.40
2017,05,13,04,17,6.40
2017,05,13,04,18,6.40
2017,05,13,04,19,6.40
2017,05,13,04,20,6.40
2017,05,13,04,21,6.40
2017,05,13,04,22,6.40
2017,05,13,04,23,6.40
2017,05,13,04,24,6.30
2017,05,13,04,25,6.30
2017,05,13,04,26,6.30
2017,05,13,04,27,6.30
2017,05,13,04,28,6.30
2017,05,13,04,29,6.30
2017,05,13,04,30,6.30
2017,05,13,04,31,6.30
2017,05,13,04,32,6.30
2017,05,13,04,33,6.30
2017,05,13,04,34,6.30
2017,05,13,04,35,6.30
2017,05,13,04,36,6.30
2017,05,13,04,37,6.30
2017,05,13,04,38,6.30
2017,05,13,04,39,6.30
2017,05,13,04,40,6.30
2017,05,13,04,41,6.40
2017,05,13,04,42,6.40
2017,05,13,04,43,6.40
2017,05,13,04,44,6.40
2017,05,13,04,45,6.40
2017,05,13,04,46,6.40
2017,05,13,04,47,6.40
2017,05,13,04,48,6.40
2017,05,13,04,49,6.50
2017,05,13,04,50,6.60
2017,05,13,04,51,6.60
2017,05,13,04,52,6.60
2017,05,13,04,53,6.60
2017,05,13,04,54,6.60
2017,05,13,04,55,6.60
2017,05,13,04,56,6.60
2017,05,13,04,57,6.60
2017,05,13,04,58,6.60
2017,05,13,04,59,6.60
2017,05,13,05,00,6.60
2017,05,13,05,01,6.60
2017,05,13,05,02,6.60
2017,05,13,05,03,6.60
2017,05,13,05,04,6.70
2017,05,13,05,05,6.70
2017,05,13,05,06,6.70
2017,05,13,05,07,6.70
2017,05,13,05,08,6.70
2017,05,13,05,09,6.70
2017,05,13,05,10,6.70
2017,05,13,05,11,6.70
2017,05,13,05,12,6.70
2017,05,13,05,13,6.70
2017,05,13,05,14,6.70
2017,05,13,05,15,6.80
2017,05,13,05,16,6.80
2017,05,13,05,17,6.80
2017,05,13,05,18,6.80
2017,05,13,05,19,6.80
2017,05,13,05,20,6.80
2017,05,13,05,21,6.80
2017,05,13,05,22,6.80
2017,05,13,05,23,6.80
2017,05,13,05,24,6.80
2017,05,13,05,25,6.80
2017,05,13,05,26,6.80
2017,05,13,05,27,6.80
2017,05,13,05,28,6.80
2017,05,13,05,29,6.80
2017,05,13,05,30,6.80
2017,05,13,05,31,6.80
2017,05,13,05,32,6.90
2017,05,13,05,33,6.90
2017,05,13,05,34,6.90
2017,05,13,05,35,6.90
2017,05,13,05,36,6.90
2017,05,13,05,37,6.90
2017,05,13,05,38,6.90
2017,05,13,05,39,6.90
2017,05,13,05,40,6.90
2017,05,13,05,41,6.90
2017,05,13,05,42,6.90
2017,05,13,05,43,6.90
2017,05,13,05,44,6.90
2017,05,13,05,45,6.90
2017,05,13,05,46,7.00
2017,05,13,05,47,7.00
2017,05,13,05,48,7.00
2017,05,13,05,49,7.00
2017,05,13,05,50,7.00
2017,05,13,05,51,7.00
2017,05,13,05,52,7.00
2017,05,13,05,53,7.00
2017,05,13,05,54,7.00
2017,05,13,05,55,7.00
2017,05,13,05,56,7.00
2017,05,13,05,57,7.10
2017,05,13,05,58,7.10
2017,05,13,05,59,7.10
2017,05,13,06,00,7.10
2017,05,13,06,01,7.10
2017,05,13,06,02,7.10
2017,05,13,06,03,7.00
2017,05,13,06,04,7.00
2017,05,13,06,05,7.00
2017,05,13,06,06,7.00
2017,05,13,06,07,7.10
2017,05,13,06,08,7.10
2017,05,13,06,09,7.10
2017,05,13,06,10,7.10
2017,05,13,06,11,7.10
2017,05,13,06,12,7.10
2017,05,13,06,13,7.00
2017,05,13,06,14,7.10
2017,05,13,06,15,7.10
2017,05,13,06,16,7.00
2017,05,13,06,17,7.00
2017,05,13,06,18,7.00
2017,05,13,06,19,7.00
2017,05,13,06,20,7.00
2017,05,13,06,21,7.00
2017,05,13,06,22,7.00
2017,05,13,06,23,7.00
2017,05,13,06,24,7.00
2017,05,13,06,25,7.00
2017,05,13,06,26,7.00
2017,05,13,06,27,7.00
2017,05,13,06,28,7.00
2017,05,13,06,29,7.00
2017,05,13,06,30,7.00
2017,05,13,06,31,7.00
2017,05,13,06,32,7.00
2017,05,13,06,33,7.00
2017,05,13,06,34,7.00
2017,05,13,06,35,7.00
2017,05,13,06,36,7.00
2017,05,13,06,37,7.00
2017,05,13,06,38,7.00
2017,05,13,06,39,7.00
2017,05,13,06,40,7.00
2017,05,13,06,41,7.00
2017,05,13,06,42,7.00
2017,05,13,06,43,7.00
2017,05,13,06,44,7.00
2017,05,13,06,45,7.00
2017,05,13,06,46,7.00
2017,05,13,06,47,7.00
2017,05,13,06,48,7.10
2017,05,13,06,49,7.10
2017,05,13,06,50,7.10
2017,05,13,06,51,7.10
2017,05,13,06,52,7.10
2017,05,13,06,53,7.10
2017,05,13,06,54,7.10
2017,05,13,06,55,7.20
2017,05,13,06,56,7.20
2017,05,13,06,57,7.20
2017,05,13,06,58,7.20
2017,05,13,06,59,7.30
2017,05,13,07,00,7.30
2017,05,13,07,01,7.30
2017,05,13,07,02,7.30
2017,05,13,07,03,7.30
2017,05,13,07,04,7.30
2017,05,13,07,05,7.30
2017,05,13,07,06,7.30
2017,05,13,07,07,7.30
2017,05,13,07,08,7.30
2017,05,13,07,09,7.30
2017,05,13,07,10,7.30
2017,05,13,07,11,7.30
2017,05,13,07,12,7.30
2017,05,13,07,13,7.30
2017,05,13,07,14,7.30
2017,05,13,07,15,7.30
2017,05,13,07,16,7.30
2017,05,13,07,17,7.30
2017,05,13,07,18,7.30
2017,05,13,07,19,7.30
2017,05,13,07,20,7.30
2017,05,13,07,21,7.30
2017,05,13,07,22,7.30
2017,05,13,07,23,7.30
2017,05,13,07,24,7.30
2017,05,13,07,25,7.30
2017,05,13,07,26,7.30
2017,05,13,07,27,7.30
2017,05,13,07,28,7.30
2017,05,13,07,29,7.30
2017,05,13,07,30,7.30
2017,05,13,07,31,7.30
2017,05,13,07,32,7.30
2017,05,13,07,33,7.30
2017,05,13,07,34,7.30
2017,05,13,07,35,7.30
2017,05,13,07,36,7.30
2017,05,13,07,37,7.30
2017,05,13,07,38,7.30
2017,05,13,07,39,7.30
2017,05,13,07,40,7.30
2017,05,13,07,41,7.30
2017,05,13,07,42,7.40
2017,05,13,07,43,7.40
2017,05,13,07,44,7.40
2017,05,13,07,45,7.40
2017,05,13,07,46,7.40
2017,05,13,07,47,7.40
2017,05,13,07,48,7.40
2017,05,13,07,49,7.40
2017,05,13,07,50,7.40
2017,05,13,07,51,7.40
2017,05,13,07,52,7.40
2017,05,13,07,53,7.40
2017,05,13,07,54,7.40
2017,05,13,07,55,7.40
2017,05,13,07,56,7.50
2017,05,13,07,57,7.50
2017,05,13,07,58,7.50
2017,05,13,07,59,7.60
2017,05,13,08,00,7.60
2017,05,13,08,01,7.60
2017,05,13,08,02,7.70
2017,05,13,08,03,7.80
2017,05,13,08,04,7.80
2017,05,13,08,05,7.80
2017,05,13,08,06,7.80
2017,05,13,08,07,7.90
2017,05,13,08,08,7.90
2017,05,13,08,09,7.90
2017,05,13,08,10,7.90
2017,05,13,08,11,7.90
2017,05,13,08,12,7.90
2017,05,13,08,13,8.00
2017,05,13,08,14,8.00
2017,05,13,08,15,8.10
2017,05,13,08,16,8.10
2017,05,13,08,17,8.20
2017,05,13,08,18,8.20
2017,05,13,08,19,8.20
2017,05,13,08,20,8.20
2017,05,13,08,21,8.20
2017,05,13,08,22,8.30
2017,05,13,08,23,8.30
2017,05,13,08,24,8.40
2017,05,13,08,25,8.40
2017,05,13,08,26,8.40
2017,05,13,08,27,8.40
2017,05,13,08,28,8.40
2017,05,13,08,29,8.40
2017,05,13,08,30,8.40
2017,05,13,08,31,8.40
2017,05,13,08,32,8.40
2017,05,13,08,33,8.40
2017,05,13,08,34,8.40
2017,05,13,08,35,8.40
2017,05,13,08,36,8.50
2017,05,13,08,37,8.50
2017,05,13,08,38,8.50
2017,05,13,08,39,8.50
2017,05,13,08,40,8.50
2017,05,13,08,41,8.50
2017,05,13,08,42,8.50
2017,05,13,08,43,8.50
2017,05,13,08,44,8.50
2017,05,13,08,45,8.50
2017,05,13,08,46,8.50
2017,05,13,08,47,8.60
2017,05,13,08,48,8.60
2017,05,13,08,49,8.60
2017,05,13,08,50,8.60
2017,05,13,08,51,8.60
2017,05,13,08,52,8.70
2017,05,13,08,53,8.70
2017,05,13,08,54,8.70
2017,05,13,08,55,8.70
2017,05,13,08,56,8.80
2017,05,13,08,57,8.80
2017,05,13,08,58,8.80
2017,05,13,08,59,8.80
2017,05,13,09,00,8.90
2017,05,13,09,01,8.90
2017,05,13,09,02,8.90
2017,05,13,09,03,8.90
2017,05,13,09,04,8.90
2017,05,13,09,05,8.90
2017,05,13,09,06,8.90
2017,05,13,09,07,8.80
2017,05,13,09,08,8.80
2017,05,13,09,09,8.80
2017,05,13,09,10,8.80
2017,05,13,09,11,8.80
2017,05,13,09,12,8.80
2017,05,13,09,13,8.70
2017,05,13,09,14,8.70
2017,05,13,09,15,8.70
2017,05,13,09,16,8.80
2017,05,13,09,17,8.70
2017,05,13,09,18,8.70
2017,05,13,09,19,8.70
2017,05,13,09,20,8.70
2017,05,13,09,21,8.70
2017,05,13,09,22,8.70
2017,05,13,09,23,8.70
2017,05,13,09,24,8.70
2017,05,13,09,25,8.70
2017,05,13,09,26,8.70
2017,05,13,09,27,8.70
2017,05,13,09,28,8.70
2017,05,13,09,29,8.70
2017,05,13,09,30,8.70
2017,05,13,09,31,8.70
2017,05,13,09,32,8.70
2017,05,13,09,33,8.70
2017,05,13,09,34,8.70
2017,05,13,09,35,8.70
2017,05,13,09,36,8.70
2017,05,13,09,37,8.70
2017,05,13,09,38,8.70
2017,05,13,09,39,8.70
2017,05,13,09,40,8.70
2017,05,13,09,41,8.70
2017,05,13,09,42,8.70
2017,05,13,09,43,8.70
2017,05,13,09,44,8.70
2017,05,13,09,45,8.70
2017,05,13,09,46,8.70
2017,05,13,09,47,8.70
2017,05,13,09,48,8.70
2017,05,13,09,49,8.70
2017,05,13,09,50,8.70
2017,05,13,09,51,8.70
2017,05,13,09,52,8.70
2017,05,13,09,53,8.70
2017,05,13,09,54,8.70
2017,05,13,09,55,8.70
2017,05,13,09,56,8.70
2017,05,13,09,57,8.80
2017,05,13,09,58,8.80
2017,05,13,09,59,8.90
2017,05,13,10,00,8.90
2017,05,13,10,01,8.90
2017,05,13,10,02,9.00
2017,05,13,10,03,9.00
2017,05,13,10,04,9.00
2017,05,13,10,05,9.00
2017,05,13,10,06,9.10
2017,05,13,10,07,9.20
2017,05,13,10,08,9.20
2017,05,13,10,09,9.20
2017,05,13,10,10,9.20
2017,05,13,10,11,9.20
2017,05,13,10,12,9.20
2017,05,13,10,13,9.20
2017,05,13,10,14,9.10
2017,05,13,10,15,9.10
2017,05,13,10,16,9.00
2017,05,13,10,17,9.00
2017,05,13,10,18,9.00
2017,05,13,10,19,8.90
2017,05,13,10,20,8.90
2017,05,13,10,21,8.90
2017,05,13,10,22,8.90
2017,05,13,10,23,8.90
2017,05,13,10,24,8.90
2017,05,13,10,25,8.90
2017,05,13,10,26,8.90
2017,05,13,10,27,8.90
2017,05,13,10,28,8.90
2017,05,13,10,29,8.90
2017,05,13,10,30,8.90
2017,05,13,10,31,8.90
2017,05,13,10,32,8.90
2017,05,13,10,33,8.80
2017,05,13,10,34,8.70
2017,05,13,10,35,8.70
2017,05,13,10,36,8.70
2017,05,13,10,37,8.70
2017,05,13,10,38,8.70
2017,05,13,10,39,8.70
2017,05,13,10,40,8.70
2017,05,13,10,41,8.70
2017,05,13,10,42,8.70
2017,05,13,10,43,8.70
2017,05,13,10,44,8.70
2017,05,13,10,45,8.70
2017,05,13,10,46,8.70
2017,05,13,10,47,8.70
2017,05,13,10,48,8.70
2017,05,13,10,49,8.70
2017,05,13,10,50,8.70
2017,05,13,10,51,8.70
2017,05,13,10,52,8.80
2017,05,13,10,53,8.80
2017,05,13,10,54,8.80
2017,05,13,10,55,8.80
2017,05,13,10,56,8.80
2017,05,13,10,57,8.80
2017,05,13,10,58,8.90
2017,05,13,10,59,8.90
2017,05,13,11,00,8.90
2017,05,13,11,01,9.00
2017,05,13,11,02,9.10
2017,05,13,11,03,9.20
2017,05,13,11,04,9.30
2017,05,13,11,05,9.40
2017,05,13,11,06,9.50
2017,05,13,11,07,9.60
2017,05,13,11,08,9.70
2017,05,13,11,09,9.80
2017,05,13,11,10,9.90
2017,05,13,11,11,9.90
2017,05,13,11,12,9.90
2017,05,13,11,13,9.80
2017,05,13,11,14,9.80
2017,05,13,11,15,9.90
2017,05,13,11,16,9.90
2017,05,13,11,17,9.90
2017,05,13,11,18,10.00
2017,05,13,11,19,10.10
2017,05,13,11,20,10.10
2017,05,13,11,21,10.10
2017,05,13,11,22,10.00
2017,05,13,11,23,9.90
2017,05,13,11,24,9.90
2017,05,13,11,25,9.80
2017,05,13,11,26,9.80
2017,05,13,11,27,9.80
2017,05,13,11,28,9.90
2017,05,13,11,29,10.10
2017,05,13,11,30,10.30
2017,05,13,11,31,10.40
2017,05,13,11,32,10.60
2017,05,13,11,33,10.70
2017,05,13,11,34,10.70
2017,05,13,11,35,10.70
2017,05,13,11,36,10.70
2017,05,13,11,37,10.70
2017,05,13,11,38,10.70
2017,05,13,11,39,10.60
2017,05,13,11,40,10.60
2017,05,13,11,41,10.70
2017,05,13,11,42,10.70
2017,05,13,11,43,10.70
2017,05,13,11,44,10.60
2017,05,13,11,45,10.60
2017,05,13,11,46,10.60
2017,05,13,11,47,10.50
2017,05,13,11,48,10.40
2017,05,13,11,49,10.40
2017,05,13,11,50,10.40
2017,05,13,11,51,10.40
2017,05,13,11,52,10.30
2017,05,13,11,53,10.30
2017,05,13,11,54,10.30
2017,05,13,11,55,10.30
2017,05,13,11,56,10.30
2017,05,13,11,57,10.40
2017,05,13,11,58,10.50
2017,05,13,11,59,10.60
2017,05,13,12,00,10.70
2017,05,13,12,01,10.70
2017,05,13,12,02,10.90
2017,05,13,12,03,11.00
2017,05,13,12,04,11.10
2017,05,13,12,05,11.10
2017,05,13,12,06,11.10
2017,05,13,12,07,11.00
2017,05,13,12,08,10.90
2017,05,13,12,09,10.90
2017,05,13,12,10,10.90
2017,05,13,12,11,10.90
2017,05,13,12,12,10.80
2017,05,13,12,13,10.70
2017,05,13,12,14,10.70
2017,05,13,12,15,10.60
2017,05,13,12,16,10.60
2017,05,13,12,17,10.70
2017,05,13,12,18,10.90
2017,05,13,12,19,11.00
2017,05,13,12,20,11.20
2017,05,13,12,21,11.30
2017,05,13,12,22,11.20
2017,05,13,12,23,11.20
2017,05,13,12,24,11.20
2017,05,13,12,25,11.20
2017,05,13,12,26,11.10
2017,05,13,12,27,11.10
2017,05,13,12,28,11.10
2017,05,13,12,29,11.10
2017,05,13,12,30,11.00
2017,05,13,12,31,11.10
2017,05,13,12,32,11.10
2017,05,13,12,33,11.20
2017,05,13,12,34,11.30
2017,05,13,12,35,11.40
2017,05,13,12,36,11.50
2017,05,13,12,37,11.60
2017,05,13,12,38,11.70
2017,05,13,12,39,11.80
2017,05,13,12,40,11.70
2017,05,13,12,41,11.70
2017,05,13,12,42,11.60
2017,05,13,12,43,11.60
2017,05,13,12,44,11.50
2017,05,13,12,45,11.40
2017,05,13,12,46,11.40
2017,05,13,12,47,11.40
2017,05,13,12,48,11.40
2017,05,13,12,49,11.40
2017,05,13,12,50,11.40
2017,05,13,12,51,11.40
2017,05,13,12,52,11.40
2017,05,13,12,53,11.50
2017,05,13,12,54,11.60
2017,05,13,12,55,11.60
2017,05,13,12,56,11.70
2017,05,13,12,57,11.80
2017,05,13,12,58,11.80
2017,05,13,12,59,11.80
2017,05,13,13,00,11.90
2017,05,13,13,01,11.80
2017,05,13,13,02,11.80
2017,05,13,13,03,11.80
2017,05,13,13,04,11.70
2017,05,13,13,05,11.80
2017,05,13,13,06,11.80
2017,05,13,13,07,11.90
2017,05,13,13,08,11.90
2017,05,13,13,09,11.90
2017,05,13,13,10,12.00
2017,05,13,13,11,12.10
2017,05,13,13,12,12.10
2017,05,13,13,13,12.20
2017,05,13,13,14,12.10
2017,05,13,13,15,12.10
2017,05,13,13,16,12.20
2017,05,13,13,17,12.20
2017,05,13,13,18,12.10
2017,05,13,13,19,12.00
2017,05,13,13,20,12.00
2017,05,13,13,21,11.90
2017,05,13,13,22,11.90
2017,05,13,13,23,11.90
2017,05,13,13,24,11.90
2017,05,13,13,25,11.90
2017,05,13,13,26,11.90
2017,05,13,13,27,11.90
2017,05,13,13,28,11.90
2017,05,13,13,29,11.80
2017,05,13,13,30,11.70
2017,05,13,13,31,11.60
2017,05,13,13,32,11.60
2017,05,13,13,33,11.60
2017,05,13,13,34,11.60
2017,05,13,13,35,11.60
2017,05,13,13,36,11.60
2017,05,13,13,37,11.50
2017,05,13,13,38,11.50
2017,05,13,13,39,11.50
2017,05,13,13,40,11.60
2017,05,13,13,41,11.60
2017,05,13,13,42,11.60
2017,05,13,13,43,11.70
2017,05,13,13,44,11.80
2017,05,13,13,45,11.80
2017,05,13,13,46,11.80
2017,05,13,13,47,11.90
2017,05,13,13,48,12.00
2017,05,13,13,49,12.00
2017,05,13,13,50,12.00
2017,05,13,13,51,12.00
2017,05,13,13,52,12.20
2017,05,13,13,53,12.30
2017,05,13,13,54,12.40
2017,05,13,13,55,12.40
2017,05,13,13,56,12.50
2017,05,13,13,57,12.40
2017,05,13,13,58,12.30
2017,05,13,13,59,12.30
2017,05,13,14,00,12.10
2017,05,13,14,01,12.00
2017,05,13,14,02,12.00
2017,05,13,14,03,12.00
2017,05,13,14,04,11.90
2017,05,13,14,05,11.90
2017,05,13,14,06,11.90
2017,05,13,14,07,11.80
2017,05,13,14,08,11.90
2017,05,13,14,09,11.90
2017,05,13,14,10,11.90
2017,05,13,14,11,11.90
2017,05,13,14,12,11.80
2017,05,13,14,13,11.80
2017,05,13,14,14,11.80
2017,05,13,14,15,11.80
2017,05,13,14,16,11.70
2017,05,13,14,17,11.70
2017,05,13,14,18,11.60
2017,05,13,14,19,11.60
2017,05,13,14,20,11.60
2017,05,13,14,21,11.50
2017,05,13,14,22,11.60
2017,05,13,14,23,11.60
2017,05,13,14,24,11.60
2017,05,13,14,25,11.60
2017,05,13,14,26,11.40
2017,05,13,14,27,11.40
2017,05,13,14,28,11.50
2017,05,13,14,29,11.60
2017,05,13,14,30,11.60
2017,05,13,14,31,11.70
2017,05,13,14,32,11.70
2017,05,13,14,33,11.70
2017,05,13,14,34,11.70
2017,05,13,14,35,11.70
2017,05,13,14,36,11.70
2017,05,13,14,37,11.70
2017,05,13,14,38,11.70
2017,05,13,14,39,11.70
2017,05,13,14,40,11.70
2017,05,13,14,41,11.70
2017,05,13,14,42,11.70
2017,05,13,14,43,11.80
2017,05,13,14,44,11.80
2017,05,13,14,45,11.80
2017,05,13,14,46,11.80
2017,05,13,14,47,11.90
2017,05,13,14,48,12.00
2017,05,13,14,49,11.90
2017,05,13,14,50,11.80
2017,05,13,14,51,11.80
2017,05,13,14,52,11.80
2017,05,13,14,53,11.80
2017,05,13,14,54,11.80
2017,05,13,14,55,11.80
2017,05,13,14,56,11.90
2017,05,13,14,57,11.90
2017,05,13,14,58,12.00
2017,05,13,14,59,12.10
2017,05,13,15,00,12.20
2017,05,13,15,01,12.20
2017,05,13,15,02,12.30
2017,05,13,15,03,12.30
2017,05,13,15,04,12.30
2017,05,13,15,05,12.40
2017,05,13,15,06,12.30
2017,05,13,15,07,12.30
2017,05,13,15,08,12.30
2017,05,13,15,09,12.20
2017,05,13,15,10,12.20
2017,05,13,15,11,12.20
2017,05,13,15,12,12.30
2017,05,13,15,13,12.30
2017,05,13,15,14,12.30
2017,05,13,15,15,12.40
2017,05,13,15,16,12.40
2017,05,13,15,17,12.40
2017,05,13,15,18,12.40
2017,05,13,15,19,12.40
2017,05,13,15,20,12.50
2017,05,13,15,21,12.50
2017,05,13,15,22,12.40
2017,05,13,15,23,12.40
2017,05,13,15,24,12.30
2017,05,13,15,25,12.30
2017,05,13,15,26,12.30
2017,05,13,15,27,12.30
2017,05,13,15,28,12.40
2017,05,13,15,29,12.40
2017,05,13,15,30,12.40
2017,05,13,15,31,12.40
2017,05,13,15,32,12.40
2017,05,13,15,33,12.40
2017,05,13,15,34,12.40
2017,05,13,15,35,12.40
2017,05,13,15,36,12.50
2017,05,13,15,37,12.60
2017,05,13,15,38,12.60
2017,05,13,15,39,12.70
2017,05,13,15,40,12.70
2017,05,13,15,41,12.80
2017,05,13,15,42,12.80
2017,05,13,15,43,12.70
2017,05,13,15,44,12.60
2017,05,13,15,45,12.60
2017,05,13,15,46,12.60
2017,05,13,15,47,12.50
2017,05,13,15,48,12.50
2017,05,13,15,49,12.50
2017,05,13,15,50,12.50
2017,05,13,15,51,12.60
2017,05,13,15,52,12.60
2017,05,13,15,53,12.70
2017,05,13,15,54,12.60
2017,05,13,15,55,12.60
2017,05,13,15,56,12.60
2017,05,13,15,57,12.50
2017,05,13,15,58,12.60
2017,05,13,15,59,12.60
2017,05,13,16,00,12.60
2017,05,13,16,01,12.60
2017,05,13,16,02,12.60
2017,05,13,16,03,12.60
2017,05,13,16,04,12.60
2017,05,13,16,05,12.60
2017,05,13,16,06,12.70
2017,05,13,16,07,12.80
2017,05,13,16,08,12.80
2017,05,13,16,09,12.80
2017,05,13,16,10,12.80
2017,05,13,16,11,12.90
2017,05,13,16,12,13.00
2017,05,13,16,13,13.00
2017,05,13,16,14,13.00
2017,05,13,16,15,12.90
2017,05,13,16,16,12.80
2017,05,13,16,17,12.80
2017,05,13,16,18,12.80
2017,05,13,16,19,12.80
2017,05,13,16,20,12.80
2017,05,13,16,21,12.80
2017,05,13,16,22,12.80
2017,05,13,16,23,12.70
2017,05,13,16,24,12.80
2017,05,13,16,25,12.80
2017,05,13,16,26,12.70
2017,05,13,16,27,12.60
2017,05,13,16,28,12.50
2017,05,13,16,29,12.50
2017,05,13,16,30,12.50
2017,05,13,16,31,12.50
2017,05,13,16,32,12.40
2017,05,13,16,33,12.40
2017,05,13,16,34,12.40
2017,05,13,16,35,12.30
2017,05,13,16,36,12.30
2017,05,13,16,37,12.30
2017,05,13,16,38,12.30
2017,05,13,16,39,12.30
2017,05,13,16,40,12.40
2017,05,13,16,41,12.40
2017,05,13,16,42,12.40
2017,05,13,16,43,12.40
2017,05,13,16,44,12.40
2017,05,13,16,45,12.50
2017,05,13,16,46,12.50
2017,05,13,16,47,12.40
2017,05,13,16,48,12.40
2017,05,13,16,49,12.30
2017,05,13,16,50,12.40
2017,05,13,16,51,12.40
2017,05,13,16,52,12.40
2017,05,13,16,53,12.30
2017,05,13,16,54,12.30
2017,05,13,16,55,12.30
2017,05,13,16,56,12.30
2017,05,13,16,57,12.40
2017,05,13,16,58,12.40
2017,05,13,16,59,12.50
2017,05,13,17,00,12.60
2017,05,13,17,01,12.60
2017,05,13,17,02,12.60
2017,05,13,17,03,12.70
2017,05,13,17,04,12.70
2017,05,13,17,05,12.70
2017,05,13,17,06,12.70
2017,05,13,17,07,12.60
2017,05,13,17,08,12.60
2017,05,13,17,09,12.60
2017,05,13,17,10,12.60
2017,05,13,17,11,12.70
2017,05,13,17,12,12.70
2017,05,13,17,13,12.70
2017,05,13,17,14,12.70
2017,05,13,17,15,12.80
2017,05,13,17,16,12.80
2017,05,13,17,17,12.80
2017,05,13,17,18,12.80
2017,05,13,17,19,12.70
2017,05,13,17,20,12.70
2017,05,13,17,21,12.80
2017,05,13,17,22,12.80
2017,05,13,17,23,12.80
2017,05,13,17,24,12.80
2017,05,13,17,25,12.90
2017,05,13,17,26,12.90
2017,05,13,17,27,12.90
2017,05,13,17,28,12.80
2017,05,13,17,29,12.80
2017,05,13,17,30,12.70
2017,05,13,17,31,12.60
2017,05,13,17,32,12.60
2017,05,13,17,33,12.50
2017,05,13,17,34,12.50
2017,05,13,17,35,12.50
2017,05,13,17,36,12.50
2017,05,13,17,37,12.50
2017,05,13,17,38,12.40
2017,05,13,17,39,12.30
2017,05,13,17,40,12.30
2017,05,13,17,41,12.30
2017,05,13,17,42,12.30
2017,05,13,17,43,12.30
2017,05,13,17,44,12.30
2017,05,13,17,45,12.30
2017,05,13,17,46,12.30
2017,05,13,17,47,12.30
2017,05,13,17,48,12.30
2017,05,13,17,49,12.30